Regional Weather Roundup
Issued by NWS

Home | Current Version | Previous Version | Graphics & Text | Print | Product List | Glossary On
Versions: 1 2 3 4 5 6 7 8 9 10 11 12 13 14 15 16 17 18 19 20 21 22 23 24 25 26 27 28 29 30 31 32 33 34 35 36 37 38 39 40 41 42 43 44 45 46 47 48 49 50
000
ASUS45 KBOI 301910
RWRID

IDAHO REGIONAL WEATHER ROUNDUP
NATIONAL WEATHER SERVICE BOISE ID
100 PM MDT TUE JUN 30 2015

NOTE: "FAIR" INDICATES FEW OR NO CLOUDS BELOW 12000 FEET
WITH NO SIGNIFICANT WEATHER AND/OR OBSTRUCTIONS TO VISIBILITY

IDZ012-014-302000-
SOUTHWEST IDAHO


CITY           SKY/WX    TMP DP  RH WIND       PRES   REMARKS
BOISE          SUNNY     95  58  28 W9G16     30.01S HX  94
CALDWELL       SUNNY     93  59  31 NW7       30.00F HX  92
$$

IDZ016-017-302000-
SOUTHCENTRAL IDAHO


CITY           SKY/WX    TMP DP  RH WIND       PRES   REMARKS
BURLEY         SUNNY     90  58  33 W8        30.09F
JEROME         MOSUNNY   89  58  34 S7        30.10S
TWIN FALLS     MOSUNNY   92  59  33 NW9       30.08F HX  91
$$

IDZ019>023-302000-
SOUTHEAST IDAHO


CITY           SKY/WX    TMP DP  RH WIND       PRES   REMARKS
IDAHO FALLS    MOSUNNY   85  55  35 N7        30.14F
POCATELLO      MOSUNNY   87  57  35 VRB6      30.13S
REXBURG        PTSUNNY   84  53  34 VRB3      30.14F
$$

IDZ006-010-011-018-031-032-302000-
CENTRAL IDAHO MOUNTAINS


CITY           SKY/WX    TMP DP  RH WIND       PRES   REMARKS
MCCALL         SUNNY     87  44  22 NW8       30.16R
HAILEY         MOSUNNY   84  57  39 SE12      30.17F
STANLEY          N/A     85  47  26 W8        30.26S
SALMON         SUNNY     82  57  42 N5        30.06F
CHALLIS        MOSUNNY   84  51  31 S5        30.14F
$$

IDZ002-004-006-007-026-302000-
NORTHERN IDAHO


CITY           SKY/WX    TMP DP  RH WIND       PRES   REMARKS
LEWISTON       SUNNY     95  54  25 NW15      29.98S HX  93
LOWELL           N/A     95  57  27 N5        29.95F HX  94
COEUR D`ALENE  SUNNY     86  55  35 SW5       30.03S
MULLAN PASS    SUNNY     73  47  39 NW8       30.25S
$$


USA.gov is the U.S. government's official web portal to all federal, state and local government web resources and services.